Regional Weather Roundup
Issued by NWS

Home | Current Version | Previous Version | Graphics & Text | Print | Product List | Glossary On
Versions: 1 2 3 4 5 6 7 8 9 10 11 12 13 14 15 16 17 18 19 20 21 22 23 24 25 26 27 28 29 30 31 32 33 34 35 36 37 38 39 40 41 42 43 44 45 46 47 48 49 50
000
ASUS43 KFSD 150110
RWRSD

WEATHER ROUNDUP FOR SOUTH DAKOTA
NATIONAL WEATHER SERVICE SIOUX FALLS SD
800 PM CDT SUN SEP 14 2014

NOTE: "FAIR" INDICATES FEW OR NO CLOUDS BELOW 12,000 FEET WITH NO
SIGNIFICANT WEATHER AND/OR OBSTRUCTIONS TO VISIBILITY.


SDZ001>005-009-010-012>017-150200-
NORTHWEST AND NORTH CENTRAL SOUTH DAKOTA

CITY           SKY/WX    TMP DP  RH WIND       PRES   REMARKS
BUFFALO          N/A     53  34  48 E12       30.08R
FAITH            N/A     52  40  63 SE5       30.13F
MOBRIDGE       CLOUDY    51  43  74 NE3       30.13R
$$

SDZ012>016-024>037-041>051-057-063-072>074-150200-
SOUTHWEST AND SOUTH CENTRAL SOUTH DAKOTA

CITY           SKY/WX    TMP DP  RH WIND       PRES   REMARKS
RAPID CTY ARPT MOCLDY    48  39  71 E7        30.13R
PIERRE         CLOUDY    53  42  66 NE5       30.12S
CUSTER         MOCLDY    43  37  79 E5        30.12S
PHILIP         CLOUDY    52  40  63 E7        30.13R
PINE RIDGE     CLEAR     52  42  69 NE10      30.09R
WINNER         CLOUDY    54  43  66 E12       30.10S
$$

SDZ004>011-016>023-039-040-150200-
NORTHEAST SOUTH DAKOTA

CITY           SKY/WX    TMP DP  RH WIND       PRES   REMARKS
ABERDEEN       MOCLDY    50  44  80 NE3       30.14R
WATERTOWN      CLOUDY    50  43  77 SW8       30.13S
SISSETON         N/A     50  44  80 NW6       30.12S
$$

SDZ017-020-022-023-036>040-048>070-150200-
SOUTHEAST SOUTH DAKOTA

CITY           SKY/WX    TMP DP  RH WIND       PRES   REMARKS
SIOUX FALLS    CLOUDY    55  46  71 NE8       30.12R
HURON          CLOUDY    49  46  90 S3        30.14F
CHAMBERLAIN    CLOUDY    52  42  69 NE8       30.11S
MITCHELL       CLOUDY    53  45  74 NE7       30.12F
YANKTON        CLOUDY    61  52  72 E5        30.07F
$$

ABBREVIATIONS USED IN REMARKS
   TC - TEMPERATURE IN CELSIUS
  WCI - WIND CHILL INDEX
   HX - HEAT INDEX
  VSB - VISIBILITY




USA.gov is the U.S. government's official web portal to all federal, state and local government web resources and services.